RH
54 56 58 61 64 66 66 65 62 60 59 58 58 60 63 66 70 72 74 74 74 75 77 81 85 87 89 91 90 86 84 84 84 83 83 82 79 79 78 72 69 71
60 63 65 66 68 68 68 68 66 64 62 60 60 61 62 63 66 68 68 69 70 71 74 78 83 87 89 91 90 89 88 88 87 85 83 82 79 78 78 75 73 74
63 66 68 69 68 68 68 68 67 66 66 65 64 63 62 60 63 66 66 65 66 67 70 74 79 84 88 90 91 92 91 88 85 84 83 81 79 77 77 78 77 77
61 64 66 67 68 69 70 68 66 66 66 67 67 66 64 62 61 62 64 63 63 63 65 70 77 81 84 88 90 92 91 87 84 83 82 81 80 78 77 79 80 79
61 64 66 67 68 69 68 65 63 63 63 65 69 70 67 65 62 62 62 62 61 61 61 66 73 77 80 83 87 89 90 90 86 84 85 86 84 79 78 82 81 80
58 61 64 67 67 66 65 63 60 61 65 68 71 73 72 68 66 65 63 62 64 65 64 65 70 75 77 79 82 85 87 89 88 85 87 89 86 81 81 83 82 80
53 55 58 61 62 62 62 62 60 61 68 75 76 76 76 73 72 71 66 63 65 67 67 67 72 77 77 77 78 81 84 88 90 89 89 88 86 83 82 83 83 82
51 52 53 53 53 55 57 59 62 63 69 78 82 82 80 77 78 78 71 65 66 68 70 72 75 78 79 77 77 80 84 87 91 92 90 88 86 84 84 84 84 82
46 46 47 46 45 48 50 53 58 62 68 77 85 88 85 83 82 80 74 70 69 71 76 78 78 79 79 76 76 79 81 85 90 91 89 88 86 86 86 86 84 83
40 40 40 40 40 42 45 49 53 57 62 71 79 84 85 84 83 80 76 72 71 73 76 78 78 79 80 77 77 78 79 82 86 89 89 89 88 86 84 84 85 84
36 36 36 37 37 37 40 45 49 52 56 62 69 75 79 80 80 79 76 74 73 74 76 76 76 78 80 79 77 78 79 80 82 87 89 88 87 86 83 84 86 85
34 35 35 35 35 35 36 40 45 48 51 55 59 63 69 73 76 77 77 78 79 79 78 76 75 77 80 81 80 79 78 78 80 84 87 88 87 85 83 84 86 85
35 35 35 36 37 37 37 40 44 47 48 51 54 57 60 65 69 73 76 77 78 78 78 77 77 81 84 83 82 82 80 79 79 81 84 88 88 86 84 85 85 84
39 38 38 39 40 40 41 43 45 46 47 48 50 53 56 58 61 65 70 73 74 74 74 75 77 80 85 85 83 82 83 81 79 78 80 85 88 87 86 86 86 85
42 42 42 42 42 42 41 42 43 45 48 48 48 50 54 57 58 59 62 66 70 72 72 73 74 78 83 84 81 80 83 83 79 78 79 82 86 88 87 88 88 87
44 43 43 43 42 41 41 40 41 43 48 50 51 51 52 55 56 58 59 62 65 69 70 71 73 75 78 79 78 78 82 84 81 78 78 79 85 89 89 89 89 87
45 45 44 43 42 40 39 39 39 42 47 51 52 53 54 55 56 57 58 61 63 66 69 70 71 72 73 75 75 74 78 82 81 79 77 78 85 90 90 89 88 87
47 46 46 44 42 40 39 38 38 39 44 47 51 54 57 59 59 58 58 60 63 66 68 69 70 71 72 73 72 72 78 83 83 81 80 78 83 90 90 88 86 86
47 47 46 45 44 42 40 39 38 38 42 46 49 54 59 63 65 65 64 63 65 66 66 68 71 72 74 76 76 74 78 84 84 84 84 81 83 88 89 87 86 85
48 47 47 46 45 43 42 41 40 41 44 47 48 51 56 61 66 70 72 70 68 67 66 67 70 72 76 81 83 79 76 81 86 88 89 86 83 86 88 88 88 85
50 49 47 47 46 45 44 44 44 43 45 47 47 48 51 56 62 69 74 74 71 68 67 67 68 71 75 80 84 81 77 81 89 92 91 88 85 86 89 90 90 86
53 51 50 49 48 47 46 46 47 46 45 46 47 47 49 54 63 73 77 77 74 70 67 67 68 70 75 80 84 84 85 89 94 95 93 91 87 87 90 91 89 85
55 54 54 52 50 49 48 47 48 49 48 47 47 49 51 55 65 79 85 84 81 76 72 70 71 72 77 84 87 88 91 96 98 96 94 91 88 88 91 90 85 78
57 56 56 56 54 52 50 49 49 50 51 51 51 52 55 57 65 82 92 91 87 84 78 75 76 78 83 88 90 92 94 98 99 96 92 90 89 89 90 86 78 71
58 57 57 57 56 54 52 51 51 51 53 54 54 54 57 59 63 76 89 91 89 89 86 83 83 86 92 95 96 96 96 97 98 94 89 90 90 88 84 79 74 72
59 58 57 57 57 56 54 53 53 53 54 55 56 55 57 59 61 67 77 83 87 91 91 90 91 94 98 99 98 96 94 96 98 94 87 86 85 82 80 78 77 78